Flag for Switzerland Weather past 2 weeks in Martigny, Valais, Switzerland

Now
37 °F

Chilly.


Feels Like: 37 °F
Forecast: 34 / 43 °F
Wind: 1 mph from East

Location: Sion

Current Time: Jan 29, 2015 at 4:13:47 PM

Latest Report: Jan 29, 2015 at 3:00 PM


Visibility: N/A

Pressure: 29.41 "Hg

Humidity: 90%

Dew point: 34 °F

Location of MartignyLocation

Historic Weather in Martigny — Graph

°F

Martigny temperature yesterday

Maximum temperature yesterday: 37 °F (at 4:00 PM)
Minimum temperature yesterday: 25 °F (at 6:00 AM)
Average temperature yesterday: 31 °F

Past Weeks' High & Low Weather Summary

 TemperatureHumidityPressure
High51 °F (Jan 15, 3:00 PM)99% (Jan 27, 12:00 AM)30.45 "Hg (Jan 27, 12:00 AM)
Low25 °F (Jan 28, 6:00 AM)38% (Jan 15, 3:00 PM)29.47 "Hg (Jan 29, 2:00 PM)
Average35 °F76%30.06 "Hg
* Reported Jan 14 2:00 PM — Jan 29 2:00 PM, Martigny, Weather by CustomWeather, © 2014

Note: Actual official high and low records may vary slightly from our data, if they occured in-between our weather recording intervals... More about our weather records

Advertising

Martigny weather history for previous 24 hours

 ConditionsComfort  
Time TempWeatherWind HumidityBarometerVisibility
2:00 PM
Jan 29
36 °FChilly.No wind91%29.47 "HgN/A
1:00 PM36 °FFog.No wind91%29.54 "Hg1 mi
12:00 PM36 °FChilly.2 mph91%29.59 "HgN/A
11:00 AM35 °FChilly.2 mph93%29.66 "HgN/A
10:00 AM33 °FDrizzle. Low clouds.1 mph94%29.67 "Hg0 mi
9:00 AM31 °FChilly.1 mph96%29.69 "HgN/A
8:00 AM30 °FChilly.1 mph97%29.70 "HgN/A
7:00 AM30 °FDrizzle. Low clouds.2 mph96%29.71 "Hg6 mi
6:00 AM30 °FChilly.1 mph96%29.73 "HgN/A
5:00 AM30 °FChilly.3 mph97%29.76 "HgN/A
4:00 AM30 °FSnow flurries. Low clouds.2 mph96%29.79 "HgN/A
3:00 AM30 °FChilly.1 mph96%29.83 "HgN/A
2:00 AM31 °FChilly.2 mph85%29.84 "HgN/A
1:00 AM32 °FOvercast.5 mph80%29.88 "Hg9 mi
12:00 AM33 °FChilly.3 mph68%29.89 "HgN/A
11:00 PM
Jan 28
33 °FChilly.2 mph69%29.94 "HgN/A
10:00 PM33 °FChilly.5 mph70%29.98 "HgN/A
9:00 PM33 °FChilly.6 mph70%30.01 "HgN/A
8:00 PM33 °FChilly.2 mph69%30.04 "HgN/A
7:00 PM32 °FPassing clouds.3 mph69%30.07 "Hg12 mi
6:00 PM34 °FChilly.1 mph64%30.07 "HgN/A
5:00 PM36 °FChilly.5 mph57%30.06 "HgN/A
4:00 PM37 °FPartly sunny.No wind53%30.09 "Hg12 mi
Weather by CustomWeather, © 2014

See weather overviewHow to use our weather pages